FIREFLY ALPHA R/B, 60210

Orbit data source: Space-Track

FIREFLY ALPHA R/B, 60210 is space debris in SSO originally from a launch on Thu, 04 Jul 2024 UTC launched from the Air Force Western Test Range (AFWTR). Debris objects in space refer to the collection of defunct objects orbiting the Earth. Examples of debris include non-operational satellites, rocket bodies, and fragments generated from explosions, collisions, or faulty payload assembly.

Loading next visibility...
Identifier
60210, 2024-125H
Orbit
SSO
Country
Flag of USUS
Related business
Manufacturer
Firefly
Mission
Spacecraft
Bus & Motor
FIREFLY A2, Unknown motor
Mass
909 kg wet, 909 kg dry
Launch date (UTC)
2024-07-04 (1 year ago)
Launch vehicle
Unknown
Launch site
Air Force Western Test Range (AFWTR)
Object type
Payload
Rocket body
Debris
Shape & HBR
Cyl, 2.9 m
Radar Cross Section
9.508 m², Large (>1 m²)

Expand to show TLE details & history
Last TLE update: 17 hours ago

TLE from 17 hours ago
0 FIREFLY ALPHA R/B
1 60210U 24125H   25348.90599825  .00021904  00000-0  36117-3 0  9999
2 60210  97.2395 204.9585 0029924 143.8445 216.4839 15.51789093 81273
Epoch: 2025-12-14T21:44Z
TLE epoch observation values (Epoch: 2025-12-14T21:44:38.248Z)
Latitude
-0.00003°
Longitude
154.98694°
Altitude
431.001 km
Speed
7.644 km/s
True Right ascension
13h 39m 50s
True Declination
0° 00' 00"
Sunlit
Object was in daylight at epoch
Visualization orbit readout
Latitude
Unknown
Longitude
Unknown
Altitude
Unknown
Speed
Unknown
Apparent Right ascension
Unknown
Apparent Declination
Unknown
Sunlit
N/A
Visualization observer readout
Local Sidereal Time
13:22:53
Azimuth
Unknown
Elevation
Unknown
Doppler factor
Unknown
Orbital elements
Apogee altitude
428.727 km
Perigee altitude
388.111 km
Semi-major axis
6,786.556 km
Eccentricity
0.00299
Inclination
97.2395°
RAAN
204.9585°
Arg. of periapsis
143.8445°
True anomaly
216.28062°
Mean anomaly
216.4839°
Eccentric anomaly
216.3822°
Mean motion
3.88212 °/min
Orbital period
92.73 mins
BSTAR
0.00036117
Loading maneuver chart data...
Computing Atmospheric mass density...
Loading historical data...
Loading historical data...
Loading historical data...
Loading historical data...
Loading historical data...
Loading historical data...
Loading historical data...

Documentation

Showing up to 5 results
|